Terminal Aerodrome Forecast
Issued by NWS Dallas/Fort Worth, TX

Home | Current Version | Previous Version | Text Only | Print | Product List | Glossary On
Versions: 1 2 3 4 5 6 7 8 9 10 11 12 13 14 15 16 17 18 19 20 21 22 23 24 25 26
779
FTUS44 KFWD 080530
TAFACT
TAF
KACT 080530Z 0806/0906 35010KT P6SM FEW300
     FM080900 34016KT P6SM SKC
     FM081700 34021G31KT P6SM FEW300
     FM090300 32014KT P6SM SKC=

USA.gov is the U.S. government's official web portal to all federal, state and local government web resources and services.